#timestamp,LO_Frequency,Hit,StdDev 
1458792015.0,286047002.1,N
1458792015.9,286047002.1,N
1458792035.8,286047002.3,N
1458792055.6,286047004.1,N
1458792075.5,286047005.9,Y
1458792095.3,286046999.7,P
1458792115.1,286047005.9,P
1458792135.8,286047003.5,N
1458792155.7,286047001.4,N
1458792175.5,286047005.5,N
1458792195.3,286047004.7,N
1458792215.2,286047004.0,N
1458792235.9,286047006.5,Y
1458792255.7,286047005.5,P
1458792275.6,286047005.1,P
1458792295.4,286047002.9,P
1458792315.2,286047007.1,Y
1458792335.1,286047001.3,P
1458792336.0,286047001.3,N
1458792355.8,286047003.9,N
1458792375.6,286047003.2,N
1458792395.5,286047001.3,N
1458792415.3,286047002.5,N
1458792435.1,286047000.2,N
1458792455.9,286046998.7,N
1458792475.7,286047003.8,N
1458792495.5,286047001.4,N
1458792515.4,286047000.1,N
1458792535.2,286047004.9,N
1458792555.0,286047005.7,Y
1458792555.9,286047005.7,P
1458792575.8,286047002.9,N
1458792595.6,286047002.4,N
1458792615.4,286047002.1,N
1458792635.3,286047003.2,N
1458792655.1,286047001.8,N
1458792656.0,286047001.8,N
1458792675.8,286047001.3,N
1458792695.6,286046999.5,N
1458792715.5,286046998.8,N
1458792735.3,286047000.2,N
1458792755.1,286047003.0,N
1458792775.9,286047001.6,N
1458792795.7,286047000.1,N
1458792815.5,286047001.5,N
1458792835.4,286047000.2,N
1458792855.2,286047003.6,N
1458792875.0,286047002.7,N
1458792875.9,286047002.7,N
1458792895.8,286047000.7,N
1458792915.6,286047000.0,N
1458792935.4,286047000.5,N
1458792955.3,286047000.0,N
1458792975.1,286046998.3,N
1458792976.0,286046998.3,N
1458792995.8,286046999.6,N
1458793015.7,286046998.1,N
1458793035.5,286046999.1,N
1458793055.3,286046997.7,N
1458793075.1,286046998.4,N
1458793095.9,286047001.1,N
1458793115.7,286046998.5,N
1458793135.5,286046999.3,N
1458793155.4,286047000.7,N
1458793175.2,286046999.6,N
1458793195.0,286046997.2,N
1458793195.9,286046997.2,N
1458793215.8,286046994.3,Y
1458793235.6,286046994.7,P
1458793255.4,286046990.2,P
1458793275.3,286046997.2,N
1458793295.1,286046993.3,N
1458793296.0,286046993.3,N
1458793315.8,286046997.6,N
1458793335.7,286046996.5,N
1458793355.5,286046995.6,N
1458793375.3,286046994.9,N
1458793395.2,286046993.4,N
1458793415.9,286046995.4,N
1458793435.7,286046997.6,N
1458793455.5,286046993.4,N
1458793475.4,286046994.9,N
1458793495.2,286046995.2,N
1458793515.0,286046997.6,N
1458793515.9,286046997.6,N
1458793535.8,286046997.8,N
1458793555.6,286046995.0,N
1458793575.4,286046997.7,N
1458793595.3,286046998.3,N
1458793615.1,286046996.9,N
1458793616.0,286046996.9,N
1458793635.8,286047000.5,N
1458793655.7,286047002.0,N
1458793675.5,286047001.5,N
1458793695.3,286047000.0,N
1458793715.2,286047000.5,N
1458793735.9,286046998.4,N
1458793755.7,286047000.8,N
1458793775.5,286047002.3,N
1458793795.4,286047000.7,N
1458793815.2,286046995.1,N
1458793835.0,286046994.9,N
1458793835.9,286046994.9,N
1458793855.8,286046993.7,N
1458793875.6,286046995.8,N
1458793895.4,286046993.5,N
1458793915.3,286046995.8,N
1458793935.1,286046997.0,N
1458793955.8,286046998.0,N
1458793975.7,286046995.2,N
1458793995.5,286046993.9,N
1458794015.3,286046993.1,N
1458794035.2,286046995.9,N
1458794055.9,286046992.1,Y
1458794075.7,286046992.2,P
1458794095.6,286046993.9,N
1458794115.4,286046995.8,N
1458794135.2,286046998.8,N
1458794155.1,286046993.8,N
1458794156.0,286046993.8,N
1458794175.8,286046995.9,N
1458794195.6,286046997.4,N
1458794215.5,286046996.2,N
1458794235.3,286046999.6,N
1458794255.1,286046999.4,N
1458794275.8,286046998.9,N
1458794295.7,286046995.0,N
1458794315.5,286046993.9,N
1458794335.3,286046992.0,Y
1458794355.2,286046999.2,P
1458794375.0,286047002.6,N
1458794375.9,286047002.6,N
1458794395.7,286047000.0,N
1458794415.6,286046999.5,N
1458794435.4,286046997.7,N
1458794455.2,286047001.0,N
1458794475.1,286046999.1,N
1458794476.0,286046999.1,N
1458794495.8,286046998.5,N
1458794515.6,286046999.6,N
1458794535.5,286046998.6,N
1458794555.3,286047000.8,N
1458794575.1,286047001.5,N
1458794595.9,286047003.7,N
1458794615.7,286047001.9,N
1458794635.5,286046999.9,N
1458794655.3,286047000.1,N
1458794675.2,286047000.8,N
1458794695.9,286047000.1,N
1458794715.7,286047001.0,N
1458794735.6,286046996.0,N
1458794755.4,286046995.1,N
1458794775.2,286046993.3,Y
1458794795.1,286046997.8,P
1458794796.0,286046997.8,N
1458794815.8,286046995.0,P
1458794835.6,286046992.0,Y
1458794855.5,286046996.0,P
1458794875.3,286046994.9,P
1458794895.1,286046993.7,P
1458794915.9,286046992.1,Y
1458794935.7,286046997.7,P
1458794955.5,286047000.7,N
1458794975.4,286046996.1,N
1458794995.2,286046995.6,N
1458795015.0,286046992.6,Y
1458795015.9,286046992.6,P
1458795035.8,286046995.9,N
1458795055.6,286046994.1,P
1458795075.4,286046992.9,Y
1458795095.3,286046993.5,P
1458795115.1,286046992.2,P
1458795135.8,286046991.5,P
1458795155.7,286046989.6,Y
1458795175.5,286046994.6,P
1458795195.3,286046996.4,P
1458795215.2,286046996.0,N
1458795235.9,286046992.5,Y
1458795255.7,286046994.0,P
1458795275.6,286046992.9,P
1458795295.4,286046988.5,P
1458795315.2,286046991.1,Y
1458795335.1,286046998.4,P
1458795336.0,286046998.4,N
1458795355.8,286046996.5,N
1458795375.6,286046997.7,N
1458795395.5,286046999.2,N
1458795415.3,286046998.5,N
1458795435.1,286046998.3,N
1458795455.9,286047002.8,N
1458795475.7,286047000.7,N
1458795495.5,286046998.5,N
1458795515.4,286046998.9,N
1458795535.2,286047000.3,N
1458795555.0,286047000.5,N
1458795555.9,286047000.5,N
1458795575.7,286047001.8,N
1458795595.6,286046999.8,N
